Regional Weather Roundup
Issued by NWS Boston, MA

Home | Current Version | Previous Version | Text Only | Print | Product List | Glossary On
Versions: 1 2 3 4 5 6 7 8 9 10 11 12 13 14 15 16 17 18 19 20 21 22 23 24 25 26 27 28 29 30 31 32 33 34 35 36 37 38 39 40 41 42 43 44 45 46 47 48 49 50
000
ASUS41 KBOX 040010
RWRBOX

REGIONAL WEATHER ROUNDUP
NATIONAL WEATHER SERVICE TAUNTON MA
800 PM EDT THU SEP 03 2015

NOTE:  "FAIR" INDICATES FEW OR NO CLOUDS BELOW 12,000 FEET WITH NO
SIGNIFICANT WEATHER AND/OR OBSTRUCTIONS TO VISIBILITY.  THE FOLLOWING
OBSERVATION LOCATIONS DO NOT REPORT PRESENT WEATHER...PROVINCETOWN...
SMITHFIELD...BLOCK ISLAND...KEENE...AND OXFORD.

MAZALL-040100-
EASTERN MASSACHUSETTS

CITY           SKY/WX    TMP DP  RH WIND       PRES   REMARKS
BOSTON         CLOUDY    73  67  81 E8        29.86R
6HR MIN TEMP:  73; 6HR MAX TEMP:  80;

BEVERLY        CLOUDY    73  64  73 E3        29.86S
LAWRENCE       CLOUDY    78  67  68 E5        29.89R
BEDFORD        CLOUDY    78  64  61 NE7       29.86R
BLUE HILL        N/A     76  65  68 E8        29.87S
NORWOOD        CLOUDY    75  68  78 CALM      29.85R
MARSHFIELD     CLOUDY    72  70  94 CALM      29.88R
PLYMOUTH       CLOUDY    72  67  84 CALM      29.87R
TAUNTON        CLOUDY    74  68  81 CALM      29.85R
NEW BEDFORD    MOCLDY    75  70  84 CALM      29.85R
$$

MAZALL-040100-
CAPE COD AND THE ISLANDS

CITY           SKY/WX    TMP DP  RH WIND       PRES   REMARKS
FALMOUTH       MOCLDY    72  68  88 CALM      29.86S
HYANNIS        MOCLDY    71  68  90 CALM      29.85S
CHATHAM        MOCLDY    73  71  93 CALM      29.87S
PROVINCETOWN     N/A     70  63  78 CALM      29.87R
NANTUCKET      PTCLDY    70  68  93 CALM      29.87R
MARTHAS VNYRD  MOCLDY    72  70  93 CALM      29.85F FOG
$$

MAZALL-040100-
CENTRAL AND WESTERN MASSACHUSETTS

CITY           SKY/WX    TMP DP  RH WIND       PRES   REMARKS
WORCESTER      CLOUDY    79  65  62 CALM      29.91R
6HR MIN TEMP:  78; 6HR MAX TEMP:  86; 6HR PCP: TRACE;

FITCHBURG      CLOUDY    82  67  60 E3        29.88R
ORANGE         CLOUDY    75  69  81 NW5       29.89R
SPRINGFIELD    MOCLDY    78  69  73 N7        29.86R
WESTFIELD      CLOUDY    79  67  66 NE5       29.87R
NORTH ADAMS    MOCLDY    72  69  90 CALM      29.91R
PITTSFIELD     MOCLDY    75  67  76 N5        29.91R
$$

RIZALL-040100-
RHODE ISLAND

CITY           SKY/WX    TMP DP  RH WIND       PRES   REMARKS
PROVIDENCE     CLOUDY    77  71  82 SE5       29.86R
6HR MIN TEMP:  77; 6HR MAX TEMP:  89;

NEWPORT        MOCLDY    75  71  87 S5        29.86R FOG
BLOCK ISLAND   PTCLDY    75  73  94 SW6       29.86S
SMITHFIELD     CLOUDY    73  66  78 SE3       29.87R
WESTERLY       MOCLDY    76  71  85 CALM      29.85S
$$

CTZALL-040100-
CONNECTICUT

CITY           SKY/WX    TMP DP  RH WIND       PRES   REMARKS
BRADLEY INTL   CLOUDY    81  68  64 N8        29.85R
6HR MIN TEMP:  80; 6HR MAX TEMP:  90;

HARTFORD       MOCLDY    82  67  60 CALM      29.84R
BRIDGEPORT     PTCLDY    83  63  50 CALM      29.84R
DANBURY        PTCLDY    75  63  66 SW3       29.87R
GROTON         PTCLDY    75  73  93 CALM      29.84S
NEW HAVEN      PTCLDY    79  66  64 CALM      29.84R
CHESTER        NOT AVBL
MERIDEN        MOCLDY    79  65  62 CALM      29.84R
WILLIMANTIC    MOCLDY    81  68  64 CALM      29.85R
OXFORD         CLEAR     79  64  61 CALM      29.89S
$$

MEZ002-015-021-024-NHZ003-005-008-011-012-014-VTZ005-008-040100-
NORTHERN NEW ENGLAND

CITY           SKY/WX    TMP DP  RH WIND       PRES   REMARKS
PORTLAND ME    PTCLDY    74  67  78 CALM      29.89R
6HR MIN TEMP:  74; 6HR MAX TEMP:  82; 6HR PCP:  0.02;

BANGOR ME      PTCLDY    74  54  49 N9        29.91R
CONCORD NH     MOCLDY    76  70  82 SE3       29.89R
MANCHESTER NH  CLOUDY    79  67  66 NE5       29.86R
NASHUA NH      CLOUDY    78  69  73 NE8       29.87R
PORTSMOUTH NH  MOCLDY    74  65  73 CALM      29.86R
JAFFREY NH     CLOUDY    73  71  93 CALM      29.92R
KEENE NH       MOCLDY    73  66  78 CALM      29.90R
BURLINGTON VT  MOCLDY    73  54  51 N3        29.95R
MT. WASHINGTON MOCLDY    54  45  71 NW15        N/A
$$

NYZ052-076-040100-
EASTERN NEW YORK

CITY           SKY/WX    TMP DP  RH WIND       PRES   REMARKS
ALBANY         MOCLDY    74  70  87 N6        29.90R
6HR MIN TEMP:  72; 6HR MAX TEMP:  89; 6HR PCP:  0.65;

NEW YORK CITY  MOCLDY    86  64  47 S9        29.83R
6HR MIN TEMP:  85; 6HR MAX TEMP:  93;

$$

ANZALL-040100-
MARINE OBSERVATIONS

STATION/POSITION TIME  TEMP    WIND        PRES    VSBY  WAVE
                       AIR SEA DIR/SP/G                  HT/PER
                 (UTC) (F)     (DEG/KT/KT) (MB)    (MI)  (FT/S)
BOSTON BUOY      2350   71 72  150/  2/  4 1011.5R         1
BUZZARDS BAY     2300          180/  3/  3 1011.8F
NANTUCKET SOUND  2350   74 73  240/  6/  6 1010.8S         0
MASS BAY-STELLWA 2304   71 69   CALM  /  2   N/A    1 7/8  1
ISLE OF SHOALS   0000   72      50/  6/  7 1011.3R
S OF BLOCK IS    2308      73                N/A           2/13
$$

......................KEY.........................
  SKY/WX - SKY CONDITION/PRESENT WEATHER
  TMP    - TEMPERATURE IN FAHRENHEIT
  DWPT   - DEWPOINT IN FAHRENHEIT
  RH     - RELATIVE HUMIDITY IN PERCENT
  WIND   - DIRECTION AND SPEED IN MPH
  PRES   - MEAN SEA LEVEL PRESSURE IN INCHES OF HG
  WCI    - WIND CHILL INDEX
  VSB    - VISIBILITY IN MILES
  HX     - HEAT INDEX
  TC     - TEMPERATURE IN CELSIUS
  VRB    - VARIABLE WIND DIRECTION
  N/A    - NOT AVAILABLE


USA.gov is the U.S. government's official web portal to all federal, state and local government web resources and services.